Location: Lafig�re
(44.4503°N, 4.0357°E)
Time: 12:08:58
(UTC+00:00)

Vanguard 2 - Pass Details

Date: 21 January 2021
Orbit: 552 x 2938 km, 32.9° (Epoch: 05 March)

Event Time Altitude Azimuth Distance (km) Brightness Sun altitude
Rises 17:55:30 0° 235° (SW) 2,806 11.9 -13.7°
Reaches altitude 10° 17:57:53 10° 219° (SW) 2,032 10.5 -14.1°
Maximum altitude 18:01:30 23° 167° (SSE) 1,594 9.1 -14.7°
Enters shadow 18:05:42 12° 120° (ESE) 2,568 9.8 -15.5°
